contact:dominique.lefevre@mio.osupytheas.fr, maurice.libes@osupytheas.fr
Project:EMSO Ligure-ouest http://www.emso-fr.org/EMSO-France
Sensor Aquadopp, line 13 Serial AQD14315 
DOI : "https://doi.org/10.17882/74513; https://doi.org/10.17882/83244" 
Title:EMSO Ligure Ouest : Data ligne ALBATROSS capteur AQUADOPP - deploiement 2021
Id,Date,Profondeur,Latitude,Longitude,X_East,Y_North,Z_Up,Amplitude_X,Amplitude_Y,Amplitude_Z,Batterie,SoundSpeed,Heading,Pitch,Roll,Pressure,Temperature,Speed,Direction
, , m, degrees North, degrees East, m.s-1, m.s-1,m.s-1, 1, 1, 1, Volt, m.s-1, degree, degree, degree, dbar, degree_C, m.s-1, degree
07,2022-03-01T21:30:00,1500.0,42.79,6.0312,0.002,0.007,-0.021,58.0,56.0,57.0,12.2,1504.1,210.2,-0.4,-0.3,1472.438,13.12,0.007,15.9
07,2022-03-01T22:00:00,1500.0,42.79,6.0312,-0.009,0.018,-0.008,58.0,58.0,56.0,12.2,1504.1,211.7,-0.3,-0.1,1472.431,13.13,0.02,333.4
07,2022-03-01T22:30:00,1500.0,42.79,6.0312,-0.002,0.015,0.005,57.0,58.0,57.0,12.2,1504.1,212.0,-0.2,-0.1,1472.419,13.13,0.015,352.4
07,2022-03-01T23:00:00,1500.0,42.79,6.0312,-0.001,0.023,0.011,59.0,58.0,58.0,12.2,1504.1,211.9,-0.1,-0.4,1472.393,13.13,0.023,357.5
07,2022-03-01T23:30:00,1500.0,42.79,6.0312,0.006,0.01,0.003,56.0,56.0,57.0,12.2,1504.1,213.2,-0.1,-0.3,1472.363,13.12,0.011,31.0
07,2022-03-02T00:00:00,1500.0,42.79,6.0312,0.014,0.0,-0.002,56.0,59.0,58.0,12.2,1504.1,214.9,-0.2,-0.4,1472.34,13.12,0.014,90.0
07,2022-03-02T00:30:00,1500.0,42.79,6.0312,0.017,-0.011,0.006,56.0,56.0,59.0,12.2,1504.0,217.0,-0.1,-0.4,1472.285,13.11,0.02,122.9
07,2022-03-02T01:00:00,1500.0,42.79,6.0312,0.016,-0.016,-0.001,59.0,60.0,57.0,12.2,1504.0,213.2,-0.2,-0.4,1472.323,13.11,0.022,135.0
07,2022-03-02T01:30:00,1500.0,42.79,6.0312,0.022,-0.016,0.002,57.0,57.0,59.0,12.2,1504.0,209.7,0.0,-0.3,1472.379,13.11,0.027,126.0
07,2022-03-02T02:00:00,1500.0,42.79,6.0312,0.018,-0.018,-0.02,57.0,57.0,57.0,12.2,1504.0,215.8,0.0,-0.3,1472.325,13.11,0.025,135.0
07,2022-03-02T02:30:00,1500.0,42.79,6.0312,0.009,-0.023,-0.012,57.0,56.0,57.0,12.2,1504.1,205.9,0.1,-0.1,1472.367,13.12,0.024,158.6
07,2022-03-02T03:00:00,1500.0,42.79,6.0312,0.007,-0.033,-0.013,56.0,58.0,58.0,12.2,1504.1,202.8,0.0,-0.1,1472.378,13.12,0.033,168.0
07,2022-03-02T03:30:00,1500.0,42.79,6.0312,0.023,-0.035,0.016,56.0,57.0,57.0,12.2,1504.1,194.2,0.0,-0.3,1472.424,13.12,0.041,146.7
07,2022-03-02T04:00:00,1500.0,42.79,6.0312,0.007,-0.031,0.008,57.0,57.0,56.0,12.2,1504.1,187.3,0.0,-0.1,1472.446,13.12,0.031,167.3
07,2022-03-02T04:30:00,1500.0,42.79,6.0312,0.0,-0.039,0.001,58.0,58.0,58.0,12.2,1504.0,184.0,0.1,-0.3,1472.497,13.11,0.039,180.0
07,2022-03-02T05:00:00,1500.0,42.79,6.0312,0.004,-0.019,0.008,56.0,57.0,57.0,12.2,1504.0,171.9,0.1,-0.4,1472.545,13.11,0.019,168.1
07,2022-03-02T05:30:00,1500.0,42.79,6.0312,0.002,-0.032,0.003,57.0,57.0,58.0,12.2,1504.0,164.6,0.1,-0.3,1472.558,13.11,0.032,176.4
07,2022-03-02T06:00:00,1500.0,42.79,6.0312,-0.003,-0.024,-0.006,56.0,56.0,56.0,12.2,1504.0,147.6,0.0,-0.1,1472.603,13.11,0.024,187.1
07,2022-03-02T06:30:00,1500.0,42.79,6.0312,-0.005,-0.03,0.003,58.0,56.0,57.0,12.2,1504.1,149.4,0.0,-0.3,1472.619,13.12,0.03,189.5
07,2022-03-02T07:00:00,1500.0,42.79,6.0312,0.0,-0.028,-0.013,59.0,57.0,57.0,12.2,1504.1,156.3,0.1,-0.4,1472.633,13.12,0.028,180.0
07,2022-03-02T07:30:00,1500.0,42.79,6.0312,0.003,-0.026,-0.002,59.0,57.0,57.0,12.2,1504.1,166.5,0.0,-0.3,1472.647,13.12,0.026,173.4
07,2022-03-02T08:00:00,1500.0,42.79,6.0312,-0.013,-0.002,0.003,58.0,59.0,55.0,12.2,1504.1,164.8,0.1,-0.2,1472.626,13.12,0.013,261.3
07,2022-03-02T08:30:00,1500.0,42.79,6.0312,-0.011,-0.018,0.004,56.0,57.0,59.0,12.2,1504.1,157.4,0.1,-0.2,1472.633,13.12,0.021,211.4
07,2022-03-02T09:00:00,1500.0,42.79,6.0312,-0.014,-0.006,-0.005,57.0,60.0,57.0,12.2,1504.1,167.8,-0.3,0.0,1472.631,13.12,0.015,246.8
07,2022-03-02T09:30:00,1500.0,42.79,6.0312,-0.007,-0.006,0.002,58.0,59.0,56.0,12.2,1504.1,174.0,0.1,-0.2,1472.594,13.12,0.009,229.4
07,2022-03-02T10:00:00,1500.0,42.79,6.0312,-0.012,0.003,-0.004,59.0,59.0,59.0,12.2,1504.1,169.5,0.1,-0.1,1472.559,13.12,0.012,284.0
07,2022-03-02T10:30:00,1500.0,42.79,6.0312,-0.009,-0.004,-0.002,57.0,59.0,57.0,12.2,1504.1,173.4,-0.2,-0.4,1472.561,13.12,0.009,246.0
07,2022-03-02T11:00:00,1500.0,42.79,6.0312,-0.027,-0.001,0.0,61.0,57.0,58.0,12.2,1504.1,181.0,-0.1,-0.1,1472.525,13.13,0.027,267.9
07,2022-03-02T11:30:00,1500.0,42.79,6.0312,-0.015,-0.009,0.0,56.0,56.0,56.0,12.2,1504.1,178.0,-0.2,0.0,1472.517,13.13,0.017,239.0
07,2022-03-02T12:00:00,1500.0,42.79,6.0312,-0.003,0.009,0.011,55.0,57.0,57.0,12.2,1504.1,179.7,0.0,-0.1,1472.447,13.13,0.009,341.6
07,2022-03-02T12:30:00,1500.0,42.79,6.0312,-0.014,0.006,0.032,56.0,57.0,59.0,12.2,1504.1,188.6,0.0,-0.2,1472.429,13.12,0.015,293.2
07,2022-03-02T13:00:00,1500.0,42.79,6.0312,0.0,0.024,0.004,58.0,57.0,58.0,12.2,1504.1,189.2,-0.2,-0.3,1472.396,13.12,0.024,0.0
07,2022-03-02T13:30:00,1500.0,42.79,6.0312,-0.008,0.008,0.003,56.0,56.0,55.0,12.2,1504.1,194.8,-0.1,-0.3,1472.425,13.12,0.011,315.0
07,2022-03-02T14:00:00,1500.0,42.79,6.0312,0.008,0.003,-0.002,57.0,57.0,60.0,12.2,1504.0,199.5,0.1,-0.3,1472.391,13.11,0.008,69.4
07,2022-03-02T14:30:00,1500.0,42.79,6.0312,0.013,0.03,0.0,58.0,56.0,58.0,12.2,1504.0,206.1,0.0,-0.4,1472.349,13.11,0.032,23.4
07,2022-03-02T15:00:00,1500.0,42.79,6.0312,0.017,0.011,0.006,59.0,59.0,58.0,12.2,1504.0,208.3,0.0,-0.2,1472.372,13.11,0.02,57.1
07,2022-03-02T15:30:00,1500.0,42.79,6.0312,0.023,0.005,0.001,59.0,58.0,58.0,12.2,1504.0,214.8,-0.1,0.0,1472.364,13.11,0.023,77.7
07,2022-03-02T16:00:00,1500.0,42.79,6.0312,0.029,0.011,-0.008,56.0,57.0,59.0,12.2,1504.0,230.1,-0.1,-0.3,1472.381,13.11,0.031,69.2
07,2022-03-02T16:30:00,1500.0,42.79,6.0312,0.028,-0.002,0.004,57.0,58.0,57.0,12.2,1504.0,235.6,-0.2,-0.3,1472.397,13.11,0.028,94.1
07,2022-03-02T17:00:00,1500.0,42.79,6.0312,0.025,-0.005,0.0,56.0,58.0,57.0,12.2,1504.1,246.1,-0.2,-0.3,1472.417,13.12,0.025,101.3
07,2022-03-02T17:30:00,1500.0,42.79,6.0312,0.022,-0.007,0.0,58.0,58.0,56.0,12.2,1504.1,246.6,0.2,-0.4,1472.431,13.12,0.023,107.6
07,2022-03-02T18:00:00,1500.0,42.79,6.0312,0.028,-0.008,-0.005,56.0,58.0,56.0,12.2,1504.1,221.4,0.0,-0.4,1472.485,13.12,0.029,105.9
07,2022-03-02T18:30:00,1500.0,42.79,6.0312,0.017,-0.019,0.0,54.0,56.0,54.0,12.2,1504.1,220.4,-0.1,-0.4,1472.472,13.12,0.025,138.2
07,2022-03-02T19:00:00,1500.0,42.79,6.0312,0.03,-0.015,0.0,55.0,55.0,55.0,12.2,1504.1,247.8,0.0,-0.1,1472.454,13.12,0.033,116.6
07,2022-03-02T19:30:00,1500.0,42.79,6.0312,0.017,-0.01,-0.011,58.0,58.0,53.0,12.2,1504.1,240.0,-0.1,-0.3,1472.492,13.12,0.019,120.5
07,2022-03-02T20:00:00,1500.0,42.79,6.0312,0.009,-0.015,0.007,54.0,57.0,56.0,12.2,1504.1,231.4,0.0,-0.4,1472.485,13.12,0.017,149.0
07,2022-03-02T20:30:00,1500.0,42.79,6.0312,0.007,-0.012,-0.006,56.0,56.0,53.0,12.2,1504.0,228.6,-0.2,-0.2,1472.476,13.11,0.013,149.7
07,2022-03-02T21:00:00,1500.0,42.79,6.0312,0.011,-0.018,-0.013,56.0,59.0,57.0,12.2,1504.0,231.4,-0.3,0.0,1472.482,13.11,0.021,148.6
